Home   Weather   Bukavu   Past weeks

Flag for Congo Dem. Rep. Past Weather in Bukavu, Congo Dem. Rep. — Yesterday and Last 2 Weeks

Now
73 °F

Scattered clouds.


Feels Like: 76 °F
Forecast: 55 / 71 °F
Wind: 5 mph from Southwest

Location: Kigali Airport

Current Time: Apr 24, 2017 at 5:40:13 pm

Latest Report: Apr 24, 2017 at 5:00 pm


Visibility: N/A

Pressure: 30.07 "Hg (24.69 "Hg at 1710m altitude)

Humidity: 65%

Dew Point: 61 °F

Location of BukavuLocation

Past Weather in Bukavu — Graph

°F

Bukavu Temperature Yesterday

Maximum temperature yesterday: 77 °F (at 12:30 pm)
Minimum temperature yesterday: 61 °F (at 1:30 am)
Average temperature yesterday: 69 °F

High & Low Weather Summary for the Past Weeks

 TemperatureHumidityPressure
High81 °F (Apr 19, 2:00 pm)100% (Apr 19, 11:00 pm)30.27 "Hg (Apr 19, 11:00 pm)
Low61 °F (Apr 21, 2:30 am)48% (Apr 19, 3:30 pm)29.98 "Hg (Apr 19, 3:30 pm)
Average68 °F82%30.11 "Hg
* Reported Apr 19 9:00 am — Apr 24 4:00 pm, Bukavu, Weather by CustomWeather, © 2017

Note: Actual official high and low records may vary slightly from our data, if they occured in-between our weather recording intervals... More about our weather records

Advertising

Bukavu Weather History for the Previous 24 Hours

Scroll right to see more
 ConditionsComfort  
Time TempWeatherWind HumidityBarometerVisibility
4:00 pm
Mon, Apr 24
73 °FScattered clouds.8 mph65%30.07 "HgN/A
3:30 pm73 °FScattered clouds.6 mph65%30.09 "HgN/A
3:00 pm73 °FScattered clouds.7 mph65%N/AN/A
2:00 pm73 °FScattered clouds.5 mph65%30.12 "HgN/A
1:00 pm72 °FScattered clouds.5 mph69%30.15 "HgN/A
12:00 pm70 °FBroken clouds.3 mph73%30.21 "HgN/A
11:30 am68 °FBroken clouds.3 mph78%30.24 "HgN/A
11:00 am68 °FPartly sunny.3 mph78%30.24 "HgN/A
10:00 am66 °FLight rain. Partly sunny.5 mph83%30.27 "HgN/A
9:30 am64 °FPartly sunny.9 mph88%30.27 "HgN/A
8:30 am63 °FRain. Partly sunny.10 mph94%30.24 "HgN/A
8:00 am63 °FPartly sunny.22 mph94%30.21 "HgN/A
7:30 am64 °FPartly sunny.2 mph94%30.18 "Hg5 mi
7:00 am64 °FPartly sunny.5 mph94%30.18 "Hg6 mi
6:30 am63 °FBroken clouds.5 mph94%30.15 "Hg4 mi
6:00 am63 °FScattered clouds.5 mph94%30.15 "Hg4 mi
5:30 am63 °FPassing clouds.2 mph94%30.12 "Hg5 mi
5:00 am63 °FPassing clouds.2 mph94%30.12 "Hg4 mi
4:30 am63 °FPassing clouds.3 mph94%30.12 "HgN/A
4:00 am63 °FPassing clouds.3 mph94%30.12 "Hg4 mi
3:30 am63 °FPassing clouds.2 mph100%30.12 "Hg4 mi
3:00 am63 °FFog.6 mph94%30.12 "Hg3 mi
2:00 am63 °FFog.5 mph100%30.12 "Hg0 mi
1:30 am64 °FPassing clouds.2 mph94%30.12 "Hg5 mi
1:00 am64 °FPassing clouds.5 mph94%30.12 "Hg5 mi
12:30 am64 °FPassing clouds.7 mph94%30.12 "Hg5 mi
12:00 am66 °FPassing clouds.2 mph88%30.15 "HgN/A
11:30 pm
Sun, Apr 23
66 °FPassing clouds.1 mph88%30.15 "HgN/A
11:00 pm68 °FPassing clouds.3 mph83%30.15 "HgN/A
10:30 pm68 °FPassing clouds.2 mph88%30.12 "HgN/A
10:00 pm68 °FPassing clouds.No wind83%30.12 "HgN/A
9:30 pm68 °FPassing clouds.1 mph83%30.12 "HgN/A
9:00 pm70 °FPassing clouds.No wind78%30.12 "HgN/A
8:30 pm70 °FPassing clouds.2 mph83%30.12 "HgN/A
8:00 pm70 °FPassing clouds.3 mph83%30.12 "HgN/A
7:30 pm70 °FPassing clouds.3 mph78%30.09 "HgN/A
7:00 pm73 °FPassing clouds.2 mph61%30.09 "HgN/A
6:30 pm73 °FPassing clouds.No wind65%30.07 "HgN/A
6:00 pm73 °FPassing clouds.No wind65%30.07 "HgN/A
5:30 pm75 °FScattered clouds.2 mph61%30.07 "HgN/A
5:00 pm75 °FScattered clouds.2 mph61%30.07 "HgN/A
Weather by CustomWeather, © 2017

See weather overviewHow to use our weather pages